TimeMDT,TemperatureF,Dew PointF,Humidity,Sea Level PressureIn,VisibilityMPH,Wind Direction,Wind SpeedMPH,Gust SpeedMPH,PrecipitationIn,Events,Conditions,WindDirDegrees,DateUTC
12:54 AM,41.0,30.9,67,30.11,10.0,North,5.8,-,N/A,,Partly Cloudy,360,2013-03-31 06:54:00
1:54 AM,37.9,28.9,70,30.12,10.0,South,4.6,-,N/A,,Partly Cloudy,190,2013-03-31 07:54:00
2:54 AM,37.9,30.0,73,30.11,10.0,East,8.1,-,N/A,,Partly Cloudy,80,2013-03-31 08:54:00
3:54 AM,39.9,32.0,73,30.09,10.0,South,6.9,-,N/A,,Mostly Cloudy,190,2013-03-31 09:54:00
4:54 AM,36.0,28.9,76,30.08,10.0,SSW,8.1,-,N/A,,Partly Cloudy,200,2013-03-31 10:54:00
5:54 AM,35.1,28.9,78,30.08,10.0,SE,5.8,-,N/A,,Clear,130,2013-03-31 11:54:00
6:54 AM,35.1,28.9,78,30.12,10.0,East,6.9,-,N/A,,Clear,100,2013-03-31 12:54:00
7:54 AM,37.9,30.9,76,30.13,10.0,SE,5.8,-,N/A,,Clear,140,2013-03-31 13:54:00
8:54 AM,42.1,32.0,67,30.10,10.0,SSE,6.9,-,N/A,,Clear,160,2013-03-31 14:54:00
9:54 AM,45.0,32.0,60,30.07,10.0,South,9.2,-,N/A,,Clear,180,2013-03-31 15:54:00
10:54 AM,50.0,30.0,46,30.04,10.0,South,6.9,-,N/A,,Clear,180,2013-03-31 16:54:00
11:54 AM,55.0,27.0,34,30.00,10.0,Variable,3.5,-,N/A,,Clear,0,2013-03-31 17:54:00
12:54 PM,61.0,26.1,26,29.96,10.0,South,10.4,16.1,N/A,,Partly Cloudy,180,2013-03-31 18:54:00
1:54 PM,63.0,21.9,21,29.92,10.0,South,10.4,20.7,N/A,,Partly Cloudy,190,2013-03-31 19:54:00
2:54 PM,64.9,17.1,16,29.88,10.0,South,10.4,16.1,N/A,,Partly Cloudy,170,2013-03-31 20:54:00
3:54 PM,66.0,16.0,15,29.85,10.0,ESE,6.9,-,N/A,,Partly Cloudy,120,2013-03-31 21:54:00
4:54 PM,66.0,14.0,13,29.86,10.0,South,9.2,-,N/A,,Partly Cloudy,170,2013-03-31 22:54:00
5:54 PM,64.9,12.0,13,29.87,10.0,ESE,11.5,-,N/A,,Partly Cloudy,120,2013-03-31 23:54:00
6:54 PM,64.0,10.9,13,29.88,10.0,East,11.5,-,N/A,,Scattered Clouds,90,2013-04-01 00:54:00
7:54 PM,55.9,14.0,19,29.94,10.0,NE,15.0,-,N/A,,Partly Cloudy,40,2013-04-01 01:54:00
8:54 PM,51.1,17.1,26,29.96,10.0,NNE,13.8,-,N/A,,Partly Cloudy,30,2013-04-01 02:54:00
9:54 PM,50.0,18.0,28,29.97,10.0,NW,9.2,-,N/A,,Clear,320,2013-04-01 03:54:00
10:54 PM,48.0,17.1,29,29.97,10.0,North,9.2,-,N/A,,Clear,360,2013-04-01 04:54:00
11:54 PM,45.0,17.1,33,29.98,10.0,NNE,15.0,-,N/A,,Clear,30,2013-04-01 05:54:00